{"data":{"norad_id":65716,"intl_designator":"2025-214E","name":"GEESAT-6 04","alt_names":[],"object_type":"PAYLOAD","status":"ACTIVE","operator":null,"country":"PRC","launch_date":"2025-09-24","launch_site_code":"YSLA","launch_vehicle":null,"mission":null,"orbit_class":"UNKNOWN","rcs_meters":null,"size_class":null,"mass_kg":null,"dimensions":null,"purposes":[],"wikipedia_slug":null,"has_3d_model":false,"image_url":null,"decayed_at":null,"tle_current":{"epoch":"2026-05-25T04:29:45.901248Z","epoch_age_seconds":62031,"freshness":"FRESH","line1":"1 65716U 25214E   26145.18733682  .00001565  00000+0  21663-3 0  9992","line2":"2 65716  49.9865  54.7835 0009270 136.4112 223.7560 14.83283431 36096","mean_motion":14.83283431,"eccentricity":0.000927,"inclination_deg":49.9865,"raan_deg":54.7835,"arg_perigee_deg":136.4112,"mean_anomaly_deg":223.756,"bstar":0.00021663,"rev_number":3609,"period_min":97.081917717451,"perigee_km":612.49273556189,"apogee_km":625.46538874112,"semimajor_km":6997.1160621515,"source":"CELESTRAK","updated_at":"2026-05-25T13:38:05.627335Z"}}}